Weather reports worldwide

Advertisment
Benson, United Kingdom (3658): temperature & dewpoint: 08.12.2017 18:00:00 - 14.12.2017 18:00:00 (GMT)Benson, United Kingdom (3658): temperature -20cm & temperature -100cm: 08.12.2017 18:00:00 - 14.12.2017 18:00:00 (GMT)Benson, United Kingdom (3658): wind speed & gusts: 08.12.2017 18:00:00 - 14.12.2017 18:00:00 (GMT)Benson, United Kingdom (3658): wind direction: 08.12.2017 18:00:00 - 14.12.2017 18:00:00 (GMT)Benson, United Kingdom (3658): reduced air pressure: 08.12.2017 18:00:00 - 14.12.2017 18:00:00 (GMT)Benson, United Kingdom (3658): visibility: 08.12.2017 18:00:00 - 14.12.2017 18:00:00 (GMT)Benson, United Kingdom (3658): precipitation: 08.12.2017 18:00:00 - 14.12.2017 18:00:00 (GMT)
Date & Time tt [°C] td [°C] tt -20cm [°C] tt -100cm [°C] ff [km/h] ff [kn] fx [km/h] fx [kn] dd ppp [hPa] vv [km] rr [mm]
14.12.2017 18:00:00 2,1 0,2 - - 15 8 - - SSW 988,2 10 0,0
14.12.2017 17:00:00 1,3 0,3 - - 15 8 - - S 988,5 10 0,0
14.12.2017 16:00:00 3,1 0,8 - - 15 8 - - SSW 989,0 10 0,0
14.12.2017 15:00:00 4,6 1,0 - - 22 12 - - SW 989,1 10 0,0
14.12.2017 14:00:00 5,2 0,5 - - 22 12 - - SW 989,8 10 0,0
14.12.2017 13:00:00 5,3 1,3 - - 16 9 - - SSW 990,5 10 0,0
14.12.2017 12:00:00 5,8 1,4 - - 18 10 - - SW 991,3 10 0,0
14.12.2017 11:00:00 5,1 0,8 - - 22 12 - - SW 992,1 10 0,0
14.12.2017 10:00:00 4,0 0,9 - - 16 9 - - SW 992,5 10 0,0
14.12.2017 09:00:00 2,6 0,1 5,2 7,7 18 10 - - SW 992,4 10 0,0
14.12.2017 08:00:00 2,5 0,2 - - 21 11 - - SW 992,6 10 0,0
14.12.2017 07:00:00 2,3 0,0 - - 13 7 - - SSW 993,0 10 0,0
14.12.2017 06:00:00 2,6 0,6 - - 18 10 - - SSW 993,1 10 0,0
14.12.2017 05:00:00 4,2 0,3 - - 21 11 - - SW 993,3 10 0,0
14.12.2017 04:00:00 4,7 0,2 - - 26 14 - - WSW 993,3 10 0,0
14.12.2017 03:00:00 3,6 0,3 - - 22 12 - - WSW 993,4 10 0,0
14.12.2017 02:00:00 3,5 -0,3 - - 22 12 - - WSW 993,5 10 0,0
14.12.2017 01:00:00 2,9 -0,9 - - 24 13 - - WSW 993,0 30 0,0
14.12.2017 00:00:00 2,5 -0,8 - - 21 11 46 25 WSW 992,8 10 0,0
13.12.2017 23:00:00 3,6 0,0 - - 24 13 61 33 W 991,8 10 0,0
13.12.2017 22:00:00 3,7 1,5 - - 28 15 - - WSW 990,4 10 0,2
13.12.2017 21:00:00 2,6 1,1 - - 22 12 - - SSW 990,4 10 1,8
13.12.2017 20:00:00 4,0 1,6 - - 28 15 - - SW 990,7 7 0,2
13.12.2017 19:00:00 4,6 0,0 - - 16 9 - - SW 991,4 10 0,0
13.12.2017 18:00:00 4,3 0,8 - - 21 11 - - WSW 992,0 30 0,0
13.12.2017 17:00:00 3,8 1,0 - - 9 5 - - WSW 992,7 10 0,0
13.12.2017 16:00:00 5,3 1,4 - - 16 9 72 39 W 992,5 10 0,6
13.12.2017 15:00:00 8,1 6,2 - - 31 17 50 27 WSW 991,2 8 1,6
13.12.2017 14:00:00 8,1 6,9 - - 21 11 - - SSW 991,8 10 0,6
13.12.2017 13:00:00 7,8 6,4 - - 22 12 - - SSW 993,8 7 0,2
13.12.2017 12:00:00 7,3 5,8 - - 21 11 - - SSW 995,8 15 0,4
13.12.2017 11:00:00 6,9 5,6 - - 16 9 - - S 997,5 10 0,0
13.12.2017 10:00:00 6,5 5,1 - - 18 10 - - SSW 998,9 10 0,0
13.12.2017 09:00:00 6,1 4,6 4,9 8,0 18 10 - - SSW 999,6 10 0,0
13.12.2017 08:00:00 4,9 3,5 - - 13 7 - - SSW 1000,6 10 0,0
13.12.2017 07:00:00 3,7 2,9 - - 2 1 - - SW 1001,2 10 0,0
13.12.2017 06:00:00 4,6 3,5 - - 8 4 - - WSW 1001,3 10 0,0
13.12.2017 05:00:00 4,9 3,7 - - 8 4 - - W 1001,6 25 0,0
13.12.2017 04:00:00 6,0 4,6 - - 15 8 - - W 1001,0 10 0,0
13.12.2017 03:00:00 7,3 6,2 - - 13 7 - - SW 1001,0 10 0,0
13.12.2017 02:00:00 7,0 6,6 - - 13 7 - - SSW 1001,4 40 0,2
13.12.2017 01:00:00 6,5 5,7 - - 21 11 - - S 1002,2 4,9 0,6
13.12.2017 00:00:00 5,3 4,7 - - 21 11 - - S 1003,5 4,0 0,2
12.12.2017 23:00:00 4,8 3,8 - - 24 13 - - SSE 1004,6 9 0,2
12.12.2017 22:00:00 4,0 2,8 - - 21 11 - - S 1005,9 10 0,2
12.12.2017 21:00:00 3,9 1,7 - - 18 10 - - S 1007,0 10 0,0
12.12.2017 20:00:00 2,9 0,9 - - 18 10 - - S 1008,0 10 0,0
12.12.2017 19:00:00 2,8 0,5 - - 16 9 - - S 1008,4 10 0,0
12.12.2017 18:00:00 2,2 0,1 - - 18 10 - - S 1008,5 10 0,0
12.12.2017 17:00:00 1,3 -0,8 - - 15 8 - - S 1009,2 10 0,0
12.12.2017 16:00:00 1,2 -0,7 - - 15 8 - - SSE 1009,6 30 0,0
12.12.2017 15:00:00 2,5 -0,5 - - 13 7 - - S 1009,5 10 0,0
12.12.2017 14:00:00 3,5 -0,3 - - 11 6 - - S 1009,6 30 0,0
12.12.2017 13:00:00 2,6 -0,8 - - 9 5 - - S 1009,3 10 0,0
12.12.2017 12:00:00 2,0 -0,3 - - 9 5 - - S 1009,7 10 0,0
12.12.2017 11:00:00 1,5 -0,5 - - 4 2 - - S 1009,9 10 0,0
12.12.2017 10:00:00 -2,0 -2,8 - - 0 0 - - N 1009,4 10 0,0
12.12.2017 09:00:00 -5,7 -6,4 5,2 8,4 5 3 - - ESE 1008,8 10 0,0
12.12.2017 08:00:00 -8,0 -8,8 - - 4 2 - - ESE 1008,8 10 0,0
12.12.2017 07:00:00 -8,8 -9,8 - - 2 1 - - SSE 1007,4 7 0,0
12.12.2017 06:00:00 -8,3 -9,5 - - 5 3 - - SSE 1006,3 7 0,0
12.12.2017 05:00:00 -8,4 -9,4 - - 2 1 - - SE 1005,5 10 0,0
12.12.2017 04:00:00 -8,2 -9,3 - - 4 2 - - SE 1005,2 10 0,0
12.12.2017 03:00:00 -6,0 -6,7 - - 5 3 - - SSW 1004,3 15 0,0
12.12.2017 02:00:00 -4,4 -5,1 - - 5 3 - - SW 1002,5 9 0,0
12.12.2017 01:00:00 -5,1 -5,8 - - 8 4 - - SSW 1001,2 10 0,0
12.12.2017 00:00:00 -5,6 -6,7 - - 2 1 - - SE 1000,2 10 0,0
11.12.2017 23:00:00 -3,0 -4,0 - - 5 3 - - W 999,4 10 0,0
11.12.2017 22:00:00 -2,0 -3,3 - - 8 4 - - NW 998,4 10 0,0
11.12.2017 21:00:00 -1,5 -3,4 - - 11 6 - - NW 997,2 10 0,0
11.12.2017 20:00:00 -0,6 -3,4 - - 13 7 - - WNW 995,5 10 0,0
11.12.2017 19:00:00 0,2 -3,7 - - 15 8 - - NW 993,9 10 0,0
11.12.2017 18:00:00 0,6 -2,0 - - 11 6 - - NW 992,7 10 0,0
11.12.2017 17:00:00 1,2 -1,3 - - 16 9 - - NNW 990,8 10 0,0
11.12.2017 16:00:00 1,4 -1,2 - - 15 8 - - NNW 989,5 10 0,0
11.12.2017 15:00:00 1,4 -1,3 - - 26 14 - - NNW 988,0 10 0,0
11.12.2017 14:00:00 1,6 -1,4 - - 22 12 - - NNW 986,7 10 0,0
11.12.2017 13:00:00 1,7 -1,2 - - 24 13 - - NNW 985,3 10 0,0
11.12.2017 12:00:00 1,8 -0,6 - - 22 12 - - N 984,4 10 0,2
11.12.2017 11:00:00 1,5 0,3 - - 26 14 - - N 983,4 10 0,2
11.12.2017 10:00:00 1,5 0,4 - - 28 15 46 25 N 982,3 10 0,8
11.12.2017 09:00:00 1,5 0,4 5,7 8,7 31 17 - - N 981,7 10 0,4
11.12.2017 08:00:00 1,4 0,6 - - 26 14 - - NNE 980,9 10 1,0
11.12.2017 07:00:00 1,3 0,6 - - 26 14 - - NNE 980,4 7 1,8
11.12.2017 06:00:00 0,9 0,7 - - 26 14 - - NNE 979,8 8 1,4
11.12.2017 05:00:00 0,8 0,7 - - 28 15 - - NNE 979,1 2,6 1,4
11.12.2017 04:00:00 0,7 0,6 - - 28 15 - - NNE 979,8 0,9 0,8
11.12.2017 03:00:00 0,7 0,5 - - 16 9 - - NNE 980,9 3,8 0,6
11.12.2017 02:00:00 0,7 0,4 - - 11 6 - - NNE 981,5 4,9 0,6
11.12.2017 01:00:00 0,9 0,3 - - 9 5 - - NE 981,2 10 0,2
11.12.2017 00:00:00 0,8 0,3 - - 4 2 - - NNE 981,4 7 0,4
10.12.2017 23:00:00 0,7 0,3 - - 4 2 - - NE 981,0 7 0,2
10.12.2017 22:00:00 0,8 0,2 - - 8 4 - - NE 980,9 9 0,2
10.12.2017 21:00:00 0,7 0,2 - - 9 5 - - NE 980,4 10 0,0
10.12.2017 20:00:00 0,1 0,0 - - 2 1 - - NE 980,3 1,3 0,0
10.12.2017 19:00:00 0,1 -0,1 - - 2 1 - - NNW 979,9 1,9 0,0
10.12.2017 18:00:00 0,2 0,1 - - 2 1 - - NW 979,6 2,1 0,2
10.12.2017 17:00:00 0,4 0,2 - - 4 2 - - WNW 979,1 2,5 0,2
10.12.2017 16:00:00 0,6 0,3 - - 5 3 - - W 978,5 5 0,4
10.12.2017 15:00:00 0,5 0,3 - - 8 4 - - WNW 977,7 8 1,0
10.12.2017 14:00:00 0,5 0,3 - - 9 5 - - WNW 977,1 5 0,8
10.12.2017 13:00:00 0,3 0,1 - - 11 6 - - NW 975,6 1,3 0,6
10.12.2017 12:00:00 0,5 0,1 - - 11 6 - - N 973,1 3,1 1,2
10.12.2017 11:00:00 0,8 0,1 - - 13 7 - - NE 972,0 6 1,4
10.12.2017 10:00:00 0,6 0,3 - - 8 4 - - ENE 973,8 4,5 0,8
10.12.2017 09:00:00 0,3 0,1 6,2 8,7 11 6 - - NNE 974,9 1,9 0,8
10.12.2017 08:00:00 0,5 0,1 - - 11 6 - - ENE 977,0 0,6 1,0
10.12.2017 07:00:00 0,6 0,2 - - 21 11 - - E 979,1 2,0 2,0
10.12.2017 06:00:00 1,0 0,4 - - 22 12 - - E 983,6 5 3,2
10.12.2017 05:00:00 1,3 0,7 - - 22 12 - - E 987,2 6 1,8
10.12.2017 04:00:00 1,2 0,0 - - 24 13 - - E 990,9 6 0,4
10.12.2017 03:00:00 1,1 -0,7 - - 18 10 - - ESE 994,3 10 0,0
10.12.2017 02:00:00 2,0 -2,1 - - 18 10 - - ESE 997,3 10 0,0
10.12.2017 01:00:00 1,5 -2,0 - - 13 7 - - ESE 1000,2 10 0,0
10.12.2017 00:00:00 -0,1 -2,5 - - 8 4 - - S 1002,7 27 0,0
09.12.2017 23:00:00 -0,3 -2,4 - - 9 5 - - SSE 1004,4 10 0,0
09.12.2017 22:00:00 -0,2 -2,3 - - 8 4 - - SSE 1006,6 10 0,0
09.12.2017 21:00:00 0,9 -1,0 - - 9 5 - - S 1007,9 26 0,0
09.12.2017 20:00:00 1,1 -1,3 - - 8 4 - - S 1009,3 25 0,0
09.12.2017 19:00:00 1,6 -1,2 - - 9 5 - - SSW 1010,4 10 0,0
09.12.2017 18:00:00 1,6 -0,9 - - 13 7 - - SSW 1011,2 10 0,0
09.12.2017 17:00:00 1,1 -1,0 - - 9 5 - - SW 1012,1 10 0,0
09.12.2017 16:00:00 1,4 -1,6 - - 9 5 - - SW 1012,7 10 0,0
09.12.2017 15:00:00 2,1 -1,5 - - 8 4 - - SW 1013,4 10 0,0
09.12.2017 14:00:00 3,1 -1,6 - - 13 7 - - SW 1014,5 10 0,0
09.12.2017 13:00:00 3,8 -1,6 - - 11 6 - - W 1015,7 10 0,0
09.12.2017 12:00:00 3,0 -1,1 - - 11 6 - - SW 1016,8 10 0,0
09.12.2017 11:00:00 3,0 -1,1 - - 8 4 - - SSW 1017,7 10 0,0
09.12.2017 10:00:00 0,8 -1,3 - - 5 3 - - SSE 1018,3 10 0,0
09.12.2017 09:00:00 -2,0 -3,1 7,0 9,0 5 3 - - SSW 1018,7 10 0,0
09.12.2017 08:00:00 -4,1 -4,7 - - 5 3 - - SSE 1019,1 10 0,0
09.12.2017 07:00:00 -3,4 -4,6 - - 4 2 - - SSW 1019,1 10 0,0
09.12.2017 06:00:00 -5,3 -7,5 - - 5 3 - - ESE 1019,1 10 0,0
09.12.2017 05:00:00 -1,6 -3,3 - - 2 1 - - N 1019,3 10 0,0
09.12.2017 04:00:00 -0,8 -2,7 - - 8 4 - - WNW 1019,4 10 0,0
09.12.2017 03:00:00 -0,6 -2,5 - - 11 6 - - W 1019,5 10 0,0
09.12.2017 02:00:00 -0,6 -2,5 - - 9 5 - - WNW 1019,7 10 0,0
09.12.2017 01:00:00 0,1 -2,2 - - 15 8 - - W 1019,7 35 0,0
09.12.2017 00:00:00 0,3 -2,5 - - 16 9 - - W 1019,6 40 0,0
08.12.2017 23:00:00 0,2 -2,3 - - 15 8 - - W 1019,5 35 0,0
08.12.2017 22:00:00 0,4 -2,2 - - 9 5 - - W 1019,7 10 0,0
08.12.2017 21:00:00 0,9 -2,1 - - 15 8 - - W 1019,6 10 0,0
08.12.2017 20:00:00 1,1 -1,8 - - 18 10 - - W 1019,6 10 0,0
08.12.2017 19:00:00 0,9 -1,6 - - 18 10 - - W 1019,4 10 0,0
08.12.2017 18:00:00 0,2 -1,5 - - 9 5 - - W 1019,0 30 0,0

tt = temperature
td = dewpoint
tt -20cm = temperature -20cm
tt -100cm = temperature -100cm
ff = wind speed
fx = gusts
dd = wind direction
ppp = reduced air pressure
vv = visibility
rr = precipitation

Next stations